CZ-4 DEB, 26134

Orbit data source: Space-Track

CZ-4 DEB, 26134 is space debris in SSO originally from a launch on Thu, 14 Oct 1999 UTC launched from the Taiyaun Space Center, China (TSC). Debris objects in space refer to the collection of defunct objects orbiting the Earth. Examples of debris include non-operational satellites, rocket bodies, and fragments generated from explosions, collisions, or faulty payload assembly.

Loading next visibility...
Identifier
26134, 1999-057W
Orbit
SSO
Country
Flag of CNCN / PRC
Related business
Manufacturer
Unknown
Mission
Spacecraft
Bus & Motor
Unknown
Mass
Unknown
Launch date (UTC)
1999-10-14 (26 years ago)
Launch vehicle
Unknown
Launch site
Taiyaun Space Center, China (TSC)
Object type
Payload
Rocket body
Debris
Shape & HBR
Unknown shape, 0.1 m
Radar Cross Section
Small (<0.1 m²)

Expand to show TLE details & history
Last TLE update: 7 hours ago

TLE from 7 hours ago
0 CZ-4 DEB
1 26134U 99057W   26036.99334476  .00001134  00000-0  78556-3 0  9991
2 26134  98.9539 204.4820 0417915 313.7512 165.4885 13.65893285283178
Epoch: 2026-02-05T23:50Z
TLE epoch observation values (Epoch: 2026-02-05T23:50:24.987Z)
Latitude
58.53898°
Longitude
-94.41297°
Altitude
1,324.084 km
Speed
7.053 km/s
True Right ascension
02h 37m 18s
True Declination
58° 23' 49"
Sunlit
Object was in daylight at epoch
Visualization orbit readout
Latitude
Unknown
Longitude
Unknown
Altitude
Unknown
Speed
Unknown
Apparent Right ascension
Unknown
Apparent Declination
Unknown
Sunlit
N/A
Visualization observer readout
Local Sidereal Time
09:07:43
Azimuth
Unknown
Elevation
Unknown
Doppler factor
Unknown
Orbital elements
Apogee altitude
1,320.415 km
Perigee altitude
702.76 km
Semi-major axis
7,389.724 km
Eccentricity
0.04179
Inclination
98.9539°
RAAN
204.482°
Arg. of periapsis
313.7512°
True anomaly
166.63054°
Mean anomaly
165.4885°
Eccentric anomaly
166.06513°
Mean motion
3.41665 °/min
Orbital period
105.37 mins
BSTAR
0.00078556
Loading maneuver chart data...
Computing Atmospheric mass density...
Loading historical data...
Loading historical data...
Loading historical data...
Loading historical data...
Loading historical data...
Loading historical data...
Loading historical data...

Documentation

Showing up to 5 results
|